Weather History for KSXT - May, 2014

Change the Weather History Date:

Saturday, May 10, 2014

  Actual Average Record
Temperature  
Mean Temperature 40 °F -  
Max Temperature 46 °F 54 °F 79 °F (2013)
Min Temperature 33 °F 36 °F 28 °F (2000)
Degree Days  
Heating Degree Days 26    
Moisture  
Dew Point 37 °F    
Average Humidity 96    
Maximum Humidity 100    
Minimum Humidity 79    
Precipitation  
Precipitation 0.09 in - - ()
Sea Level Pressure  
Sea Level Pressure 30.18 in    
Wind  
Wind Speed 6 mph (NW)    
Max Wind Speed 12 mph    
Max Gust Speed 20 mph    
Visibility 4 miles    
Events Fog , Rain , Snow    
Averages and records for this station are not official NWS values.
T = Trace of Precipitation, MM = Missing Value Source: NWS Daily Summary

Daily Weather History Graph

Daily Weather History Graph

Search for Another Location

Airport or City:

Trip Planner

Search our weather history database for the weather conditions in past years. The results will help you decide how hot, cold, wet, or windy it might be!

Date:

Astronomy

May. 10, 2014 Rise Set
Actual Time 5:56 AM PDT 8:23 PM PDT
Civil Twilight 5:24 AM PDT 8:55 PM PDT
Nautical Twilight 4:45 AM PDT 9:35 PM PDT
Astronomical Twilight 4:01 AM PDT 10:19 PM PDT
Moon 4:19 PM PDT (5/10) 3:38 AM PDT (5/10)
Length of Visible Light 15h 30m
Length of Day
14h 27m
Waxing Gibbous, 83% of the Moon is Illuminated
May 10
Waxing Gibbous
May 14
Full
May 21
Last Quarter
May 28
New
Jun 5
First Quarter

Hourly Weather History & Observations

Time (PDT) Temp. Windchill Dew Point Humidity Pressure Visibility Wind Dir Wind Speed Gust Speed Precip Events Conditions
12:56 AM 35.1 °F 27.9 °F 35.1 °F 100% 30.13 in 0.2 mi SSW 9.2 mph - N/A Fog Fog
1:20 AM 35.1 °F 26.9 °F 35.1 °F 100% 30.10 in 0.2 mi SSW 11.5 mph - N/A Fog Fog
1:56 AM 35.1 °F 27.4 °F 35.1 °F 100% 30.12 in 0.2 mi SW 10.4 mph - 0.00 in Fog Fog
2:56 AM 34.0 °F 28.0 °F 34.0 °F 100% 30.12 in 0.5 mi SW 6.9 mph - 0.01 in Fog Fog
3:05 AM 35.1 °F 30.1 °F 35.1 °F 100% 30.08 in 0.2 mi Variable 5.8 mph - N/A Fog Fog
3:21 AM 35.1 °F 28.6 °F 35.1 °F 100% 30.08 in 0.2 mi SSW 8.1 mph - N/A Fog Fog
3:41 AM 35.1 °F 27.9 °F 35.1 °F 100% 30.08 in 0.2 mi SSW 9.2 mph - N/A Fog Fog
3:51 AM 35.6 °F 28.6 °F 35.6 °F 100% 30.08 in 0.2 mi SSW 9.2 mph - 0.00 in Fog Fog
3:56 AM 35.1 °F 27.4 °F 35.1 °F 100% 30.11 in 0.2 mi SSW 10.4 mph - 0.00 in Fog Fog
4:39 AM 35.1 °F 31.0 °F 35.1 °F 100% 30.09 in 0.5 mi Variable 4.6 mph - 0.01 in Fog Fog
4:56 AM 35.1 °F 31.0 °F 35.1 °F 100% 30.13 in 0.5 mi Variable 4.6 mph - 0.01 in Fog Fog
5:56 AM 34.0 °F 29.8 °F 34.0 °F 100% 30.14 in 0.5 mi NNW 4.6 mph - 0.00 in Fog Fog
6:27 AM 33.1 °F 26.9 °F 33.1 °F 100% 30.10 in 0.5 mi Variable 6.9 mph - N/A Fog Fog
6:37 AM 34.0 °F 28.0 °F 34.0 °F 100% 30.10 in 0.2 mi Variable 6.9 mph - N/A Fog Fog
6:39 AM 34.0 °F 31.0 °F 33.1 °F 96% 30.10 in 0.2 mi Variable 3.5 mph - N/A Fog Fog
6:53 AM 33.8 °F 29.6 °F 33.8 °F 100% 30.10 in 0.2 mi NW 4.6 mph - N/A Fog Fog
6:56 AM 34.0 °F 29.8 °F 34.0 °F 100% 30.15 in 0.2 mi Variable 4.6 mph - N/A Fog Fog
7:04 AM 35.1 °F 32.2 °F 35.1 °F 100% 30.10 in 0.2 mi Variable 3.5 mph - N/A Fog Fog
7:18 AM 34.0 °F 31.0 °F 34.0 °F 100% 30.11 in 0.2 mi Variable 3.5 mph - N/A Fog Fog
7:37 AM 35.1 °F 32.2 °F 35.1 °F 100% 30.12 in 0.2 mi WNW 3.5 mph - N/A Fog Fog
7:56 AM 36.0 °F - 36.0 °F 100% 30.17 in 0.2 mi Calm Calm - N/A Fog Fog
8:56 AM 35.1 °F - 35.1 °F 100% 30.19 in 0.2 mi Calm Calm - 0.01 in Fog , Snow Light Snow
9:56 AM 34.0 °F - 34.0 °F 100% 30.21 in 0.2 mi Calm Calm - 0.04 in Fog , Snow Light Snow
10:56 AM 37.9 °F 35.5 °F 37.9 °F 100% 30.21 in 0.2 mi Variable 3.5 mph - 0.01 in Fog Fog
11:10 AM 37.0 °F 34.5 °F 37.0 °F 100% 30.16 in 0.2 mi Variable 3.5 mph - N/A Fog Fog
11:56 AM 37.9 °F 35.5 °F 37.9 °F 100% 30.22 in 0.2 mi Variable 3.5 mph - N/A Fog Fog
12:02 PM 39.0 °F - 39.0 °F 100% 30.17 in 0.5 mi Calm Calm - N/A Fog Fog
12:09 PM 37.9 °F - 37.9 °F 100% 30.17 in 0.5 mi Calm Calm - N/A Fog Fog
12:20 PM 41.0 °F 39.0 °F 41.0 °F 100% 30.18 in 1.2 mi Variable 3.5 mph - N/A   Overcast
12:23 PM 41.0 °F 39.0 °F 41.0 °F 100% 30.18 in 3.0 mi Variable 3.5 mph - N/A   Overcast
12:30 PM 39.0 °F - 37.9 °F 96% 30.18 in 1.8 mi Calm Calm - 0.00 in Rain Light Rain
12:32 PM 37.9 °F 35.5 °F 37.9 °F 100% 30.18 in 0.8 mi Variable 3.5 mph - 0.00 in Rain Light Rain
12:41 PM 37.9 °F - 37.9 °F 100% 30.18 in 0.2 mi Calm Calm - 0.00 in Fog , Rain Light Rain
12:56 PM 41.0 °F - 39.9 °F 96% 30.22 in 0.2 mi Calm Calm - 0.01 in Fog Fog
1:05 PM 42.1 °F 40.2 °F 41.0 °F 96% 30.18 in 0.8 mi NNE 3.5 mph - N/A   Overcast
1:07 PM 42.1 °F - 42.1 °F 100% 30.18 in 2.0 mi Calm Calm - N/A   Overcast
1:15 PM 39.9 °F 37.8 °F 39.0 °F 97% 30.17 in 7.0 mi Variable 3.5 mph - N/A   Mostly Cloudy
1:41 PM 41.0 °F 38.0 °F 39.0 °F 93% 30.18 in 10.0 mi Variable 4.6 mph - N/A   Mostly Cloudy
1:56 PM 43.0 °F 39.5 °F 41.0 °F 93% 30.21 in 9.0 mi Variable 5.8 mph - N/A   Overcast
2:09 PM 45.0 °F 43.5 °F 42.1 °F 90% 30.18 in 10.0 mi Variable 3.5 mph - 0.00 in   Mostly Cloudy
2:15 PM 44.1 °F 42.5 °F 42.1 °F 93% 30.18 in 10.0 mi Variable 3.5 mph - 0.00 in   Mostly Cloudy
2:28 PM 45.0 °F 43.5 °F 41.0 °F 86% 30.19 in 10.0 mi Variable 3.5 mph - 0.00 in   Mostly Cloudy
2:56 PM 46.0 °F 43.9 °F 41.0 °F 83% 30.21 in 10.0 mi Variable 4.6 mph - 0.00 in   Mostly Cloudy
3:34 PM 45.0 °F 43.5 °F 42.1 °F 90% 30.19 in 10.0 mi Variable 3.5 mph - 0.00 in   Mostly Cloudy
3:44 PM 46.0 °F - 39.9 °F 79% 30.18 in 10.0 mi Calm Calm - 0.00 in   Scattered Clouds
3:56 PM 44.1 °F 42.5 °F 39.9 °F 85% 30.21 in 10.0 mi Variable 3.5 mph - 0.00 in   Mostly Cloudy
4:45 PM 46.0 °F - 39.9 °F 79% 30.19 in 10.0 mi Calm Calm - N/A   Overcast
4:56 PM 44.1 °F - 37.9 °F 79% 30.22 in 10.0 mi North - - N/A   Overcast
5:15 PM 46.0 °F - 39.9 °F 79% 30.19 in 10.0 mi North - - 0.00 in   Mostly Cloudy
5:56 PM 44.1 °F 41.5 °F 39.0 °F 82% 30.23 in 10.0 mi Variable 4.6 mph - 0.00 in   Partly Cloudy
6:56 PM 43.0 °F - 37.0 °F 80% 30.23 in 10.0 mi Calm Calm - N/A   Scattered Clouds
7:43 PM 41.0 °F 39.0 °F 37.9 °F 89% 30.20 in 10.0 mi Variable 3.5 mph - N/A   Overcast
7:56 PM 41.0 °F 39.0 °F 37.9 °F 89% 30.24 in 10.0 mi Variable 3.5 mph - N/A   Overcast
8:04 PM 39.9 °F 37.8 °F 37.9 °F 93% 30.20 in 10.0 mi Variable 3.5 mph - N/A   Mostly Cloudy
8:12 PM 39.9 °F 36.7 °F 37.9 °F 93% 30.21 in 10.0 mi Variable 4.6 mph - N/A   Mostly Cloudy
8:56 PM 39.0 °F - 37.9 °F 96% 30.26 in 10.0 mi Calm Calm - N/A   Clear
9:16 PM 37.9 °F 34.4 °F 37.0 °F 97% 30.22 in 10.0 mi Variable 4.6 mph - N/A   Partly Cloudy
9:56 PM 37.0 °F 30.4 °F 36.0 °F 96% 30.28 in 10.0 mi NNW 9.2 mph 18.4 mph N/A   Clear
10:24 PM 37.0 °F 29.8 °F 37.0 °F 100% 30.23 in 10.0 mi NNW 10.4 mph 17.3 mph N/A   Mostly Cloudy
10:31 PM 37.0 °F 29.3 °F 37.0 °F 100% 30.23 in 10.0 mi North 11.5 mph 19.6 mph N/A   Mostly Cloudy
10:42 PM 37.0 °F 29.3 °F 37.0 °F 100% 30.23 in 10.0 mi North 11.5 mph - N/A   Overcast
10:54 PM 37.4 °F 30.3 °F 37.4 °F 100% 30.23 in 1.8 mi North 10.4 mph - N/A   Overcast
10:56 PM 37.0 °F 31.0 °F 37.0 °F 100% 30.27 in 1.2 mi North 8.1 mph - N/A   Overcast
11:04 PM 37.0 °F 29.8 °F 37.0 °F 100% 30.23 in 0.5 mi North 10.4 mph - N/A Fog Fog
11:13 PM 37.0 °F 29.8 °F 37.0 °F 100% 30.23 in 0.2 mi North 10.4 mph - N/A Fog Fog
11:56 PM 37.0 °F 30.4 °F 37.0 °F 100% 30.29 in 0.2 mi North 9.2 mph - N/A Fog Fog